Location: Chittendens Corners
(41.2320°N, 81.4940°W)
Time: 08:08:09
(UTC+00:00)

IRS-1C Rocket - Pass Details

Date: 29 October 2020
Orbit: 801 x 805 km, 99.0° (Epoch: 28 November)

Event Time Altitude Azimuth Distance (km) Brightness Sun altitude
Rises 23:30:33 0° 161° (SSE) 3,300 7.2 -13.0°
Reaches altitude 10° 23:32:52 10° 160° (SSE) 2,374 6.4 -13.4°
Maximum altitude 23:38:07 79° 74° (ENE) 823 4.0 -14.4°
Drops below altitude 10° 23:43:24 10° 349° (NNW) 2,393 6.6 -15.4°
Sets 23:45:45 0° 348° (NNW) 3,329 7.4 -15.8°
